Suomi 100 (43804 NORAD) Tracking and Keplerian Element Data

This shows tracking and keplerian element data for the satellite.

Feedback or suggestion? Click here.




ElementValue
Catalog43804
NameSuomi 100
Epoch Orbit1092
Epoch Day45.83265999
Epoch Year2019
RAAN119.2367
Inclination97.7562
Eccentricity0.0015914
Argument of Perigee27.6997
Mean Anonmoly332.5067
Mean Motion14.95179993
Decay Rate1.56E-06
L11 43804U 18099AY 19045.83265999 .00000156 00000-0 19503-4 0 9990
L22 43804 97.7562 119.2367 0015914 27.6997 332.5067 14.95179993 10921

Live tracking and technical data element details for Suomi 100 (NORAD 43804). Suomi 100 can be tracked NOW for your location showing map with azimuth and elevation plus other details from your city location.

Track the satellite on the map from your city or location and see movement details for azimuth, elevation, latitude, longitude, range, height, and movement on the map or in text.







IsCatalogInMostPopularTable: catalog: 43804, numindb: 224
Update: records affected: 1



GetName: 43804 Suomi 100

Hit Count: updated at: Thu, 21 Feb 2019 11:22:59 GMT